• In Germany
  • List of Countries
  • For 7 days
  • Water Temperature
  • Satellite Maps
  • Weather Map
  • Weather Widgets
  • user-avatar
    Login

    Hourly Weather Villavicencio

    Today, 23 November, Thursday

    Time Temperature Precipitation Wind Pressure Humidity
    00:00 +24°C° 0.1 mm 1 mps 717 mmHg 88%
    01:00 +24°C° 0.1 mm 1 mps 717 mmHg 87%
    02:00 +23°C° 0.1 mm 1 mps 716 mmHg 86%
    03:00 +23°C° 0.1 mm 1 mps 716 mmHg 86%
    04:00 +23°C° 0.1 mm 1 mps 716 mmHg 85%
    05:00 +24°C° 0.1 mm 1 mps 716 mmHg 83%
    06:00 +25°C° 0.1 mm 1 mps 717 mmHg 80%
    07:00 +25°C° 0.1 mm 1 mps 717 mmHg 78%
    08:00 +27°C° 0.1 mm 1 mps 718 mmHg 71%
    09:00 +30°C° 0.1 mm 1 mps 718 mmHg 65%
    10:00 +32°C° 0.1 mm 1 mps 718 mmHg 58%
    11:00 +32°C° 0.1 mm 1 mps 718 mmHg 58%
    12:00 +32°C° 0.1 mm 2 mps 717 mmHg 58%
    13:00 +34°C° 0.1 mm 2 mps 716 mmHg 57%
    14:00 +32°C° 0.4 mm 2 mps 716 mmHg 62%
    15:00 +31°C° 0.4 mm 2 mps 715 mmHg 67%
    16:00 +31°C° 0.4 mm 2 mps 714 mmHg 72%
    17:00 +29°C° 0.7 mm 1 mps 715 mmHg 78%
    18:00 +27°C° 0.7 mm 1 mps 715 mmHg 84%
    19:00 +26°C° 0.7 mm 1 mps 715 mmHg 90%
    20:00 +25°C° 0.1 mm 1 mps 716 mmHg 89%
    21:00 +25°C° 0.1 mm 1 mps 716 mmHg 88%
    22:00 +25°C° 0.1 mm 1 mps 717 mmHg 88%
    23:00 +24°C° 0.1 mm 1 mps 717 mmHg 86%

    Tomorrow, 24 November, Friday

    Time Temperature Precipitation Wind Pressure Humidity
    00:00 +24°C° 0.1 mm 1 mps 716 mmHg 84%
    01:00 +24°C° 0.1 mm 1 mps 716 mmHg 82%
    02:00 +24°C° 0.1 mm 1 mps 716 mmHg 80%
    03:00 +24°C° 0.1 mm 1 mps 716 mmHg 78%
    04:00 +23°C° 0.1 mm 1 mps 716 mmHg 77%
    05:00 +24°C° 0 mm 1 mps 716 mmHg 75%
    06:00 +25°C° 0 mm 1 mps 717 mmHg 74%
    07:00 +25°C° 0 mm 1 mps 717 mmHg 73%
    08:00 +27°C° 0.2 mm 1 mps 718 mmHg 68%
    09:00 +29°C° 0.2 mm 1 mps 718 mmHg 64%
    10:00 +31°C° 0.2 mm 1 mps 718 mmHg 59%
    11:00 +31°C° 0.1 mm 1 mps 718 mmHg 60%
    12:00 +31°C° 0.1 mm 2 mps 717 mmHg 61%
    13:00 +32°C° 0.1 mm 2 mps 716 mmHg 62%
    14:00 +31°C° 0.3 mm 2 mps 716 mmHg 67%
    15:00 +30°C° 0.3 mm 1 mps 715 mmHg 72%
    16:00 +30°C° 0.3 mm 1 mps 714 mmHg 77%
    17:00 +28°C° 0.5 mm 1 mps 715 mmHg 81%
    18:00 +27°C° 0.5 mm 1 mps 715 mmHg 84%
    19:00 +26°C° 0.5 mm 1 mps 716 mmHg 88%
    20:00 +25°C° 0.1 mm 1 mps 716 mmHg 87%
    21:00 +25°C° 0.1 mm 1 mps 717 mmHg 86%
    22:00 +25°C° 0.1 mm 1 mps 717 mmHg 85%
    23:00 +24°C° 0.1 mm 1 mps 717 mmHg 84%

    Day after tomorrow, 25 November, Saturday

    Time Temperature Precipitation Wind Pressure Humidity
    00:00 +24°C° 0.1 mm 1 mps 717 mmHg 83%
    01:00 +24°C° 0.1 mm 1 mps 716 mmHg 82%
    02:00 +24°C° 0.1 mm 1 mps 716 mmHg 82%
    03:00 +24°C° 0.1 mm 1 mps 716 mmHg 82%
    04:00 +23°C° 0.1 mm 1 mps 716 mmHg 82%
    05:00 +24°C° 0.2 mm 1 mps 716 mmHg 81%
    06:00 +24°C° 0.2 mm 1 mps 717 mmHg 80%
    07:00 +23°C° 0.2 mm 0 mps 718 mmHg 79%
    08:00 +26°C° 0.1 mm 1 mps 718 mmHg 77%
    09:00 +27°C° 0.1 mm 1 mps 719 mmHg 74%
    10:00 +28°C° 0.1 mm 1 mps 719 mmHg 72%
    11:00 +29°C° 0.1 mm 1 mps 718 mmHg 68%
    12:00 +30°C° 0.1 mm 1 mps 717 mmHg 64%
    13:00 +31°C° 0.1 mm 1 mps 717 mmHg 60%
    14:00 +31°C° 0 mm 1 mps 716 mmHg 63%
    15:00 +30°C° 0 mm 1 mps 715 mmHg 66%
    16:00 +30°C° 0 mm 1 mps 715 mmHg 69%
    17:00 +28°C° 0 mm 1 mps 715 mmHg 75%
    18:00 +27°C° 0 mm 1 mps 716 mmHg 81%
    19:00 +25°C° 0 mm 1 mps 716 mmHg 87%
    20:00 +25°C° 0 mm 1 mps 717 mmHg 86%
    21:00 +25°C° 0 mm 1 mps 717 mmHg 84%
    22:00 +24°C° 0 mm 1 mps 717 mmHg 83%
    23:00 +24°C° 0 mm 1 mps 717 mmHg 82%

    26 November, Sunday

    Time Temperature Precipitation Wind Pressure Humidity
    00:00 +24°C° 0 mm 1 mps 717 mmHg 82%
    01:00 +23°C° 0 mm 1 mps 716 mmHg 81%
    02:00 +23°C° 0 mm 1 mps 716 mmHg 80%
    03:00 +23°C° 0 mm 1 mps 716 mmHg 78%
    04:00 +23°C° 0 mm 1 mps 716 mmHg 77%
    05:00 +24°C° 0 mm 1 mps 716 mmHg 75%
    06:00 +25°C° 0 mm 1 mps 717 mmHg 72%
    07:00 +25°C° 0 mm 1 mps 717 mmHg 70%
    08:00 +28°C° 0 mm 1 mps 718 mmHg 64%
    09:00 +30°C° 0 mm 1 mps 718 mmHg 59%
    10:00 +32°C° 0 mm 1 mps 718 mmHg 53%
    11:00 +32°C° 0 mm 2 mps 717 mmHg 55%
    12:00 +32°C° 0 mm 2 mps 716 mmHg 56%
    13:00 +32°C° 0 mm 2 mps 715 mmHg 57%
    14:00 +32°C° 0.1 mm 2 mps 715 mmHg 62%
    15:00 +31°C° 0.1 mm 1 mps 714 mmHg 67%
    16:00 +31°C° 0.1 mm 1 mps 714 mmHg 72%
    17:00 +29°C° 0.6 mm 1 mps 714 mmHg 78%
    18:00 +28°C° 0.6 mm 1 mps 715 mmHg 83%
    19:00 +26°C° 0.6 mm 1 mps 715 mmHg 88%
    20:00 +26°C° 1 mm 1 mps 716 mmHg 89%
    21:00 +26°C° 1 mm 1 mps 716 mmHg 89%
    22:00 +25°C° 1 mm 1 mps 716 mmHg 90%
    23:00 +25°C° 0.6 mm 1 mps 716 mmHg 89%

    27 November, Monday

    Time Temperature Precipitation Wind Pressure Humidity
    00:00 +25°C° 0.6 mm 1 mps 716 mmHg 89%
    01:00 +25°C° 0.6 mm 1 mps 715 mmHg 89%
    02:00 +24°C° 0.6 mm 1 mps 715 mmHg 89%
    03:00 +24°C° 0.6 mm 1 mps 715 mmHg 89%
    04:00 +24°C° 0.6 mm 1 mps 715 mmHg 89%
    05:00 +23°C° 0.2 mm 0 mps 716 mmHg 87%
    06:00 +23°C° 0.2 mm 0 mps 716 mmHg 86%
    07:00 +24°C° 0.2 mm 0 mps 717 mmHg 84%
    08:00 +27°C° 0 mm 1 mps 717 mmHg 77%
    09:00 +29°C° 0 mm 1 mps 717 mmHg 71%
    10:00 +31°C° 0 mm 1 mps 717 mmHg 64%
    11:00 +31°C° 0.2 mm 1 mps 716 mmHg 64%
    12:00 +31°C° 0.2 mm 2 mps 715 mmHg 64%
    13:00 +31°C° 0.2 mm 2 mps 715 mmHg 64%
    14:00 +31°C° 0.6 mm 2 mps 714 mmHg 68%
    15:00 +30°C° 0.6 mm 2 mps 714 mmHg 72%
    16:00 +30°C° 0.6 mm 1 mps 714 mmHg 76%
    17:00 +28°C° 1.3 mm 1 mps 714 mmHg 81%
    18:00 +27°C° 1.3 mm 1 mps 715 mmHg 86%
    19:00 +26°C° 1.3 mm 1 mps 715 mmHg 90%
    20:00 +26°C° 1 mm 1 mps 716 mmHg 90%
    21:00 +25°C° 1 mm 1 mps 716 mmHg 89%
    22:00 +25°C° 1 mm 1 mps 716 mmHg 89%
    23:00 +25°C° 0.9 mm 1 mps 716 mmHg 88%

    28 November, Tuesday

    Time Temperature Precipitation Wind Pressure Humidity
    00:00 +25°C° 0.9 mm 1 mps 716 mmHg 88%
    01:00 +24°C° 0.9 mm 1 mps 716 mmHg 87%
    02:00 +24°C° 0.4 mm 1 mps 716 mmHg 87%
    03:00 +24°C° 0.4 mm 1 mps 716 mmHg 88%
    04:00 +24°C° 0.4 mm 1 mps 716 mmHg 88%
    05:00 +24°C° 0.1 mm 1 mps 716 mmHg 87%
    06:00 +25°C° 0.1 mm 1 mps 717 mmHg 86%
    07:00 +25°C° 0.1 mm 1 mps 718 mmHg 85%
    08:00 +27°C° 0.1 mm 1 mps 718 mmHg 78%
    09:00 +28°C° 0.1 mm 1 mps 718 mmHg 70%
    10:00 +30°C° 0.1 mm 1 mps 718 mmHg 63%
    11:00 +30°C° 0 mm 1 mps 717 mmHg 61%
    12:00 +31°C° 0 mm 2 mps 717 mmHg 58%
    13:00 +32°C° 0 mm 2 mps 716 mmHg 55%
    14:00 +31°C° 0 mm 2 mps 716 mmHg 59%
    15:00 +31°C° 0 mm 1 mps 715 mmHg 63%
    16:00 +30°C° 0 mm 1 mps 715 mmHg 66%
    17:00 +29°C° 0.1 mm 1 mps 716 mmHg 72%
    18:00 +27°C° 0.1 mm 1 mps 716 mmHg 78%
    19:00 +25°C° 0.1 mm 1 mps 717 mmHg 84%
    20:00 +25°C° 0.3 mm 1 mps 717 mmHg 83%
    21:00 +25°C° 0.3 mm 1 mps 717 mmHg 82%
    22:00 +25°C° 0.3 mm 1 mps 718 mmHg 80%
    23:00 +24°C° 0 mm 1 mps 718 mmHg 79%
    Show more